Montana Department of Transportation

Main Content

Accidents and Incidents Report

Hourly Weather Roundup

ASUS45 KTFX 181410

RWRMT 

Montana Regional Weather Roundup

National Weather Service Great Falls MT

700 AM MST SAT JAN 18 2020



NOTE: "FAIR" indicates few or no clouds below 12,000 feet with no

significant weather and/or obstructions to visibility.



MTZ001.007-043-181500-

West of the divide

  

CITY           SKY/WX    TMP DP  RH WIND       PRES   REMARKS

Kalispell      CLOUDY    18  14  84 CALM      30.29R                  

Missoula       CLOUDY    22  19  89 W3        30.29R                  

Butte          CLOUDY    25   9  50 VRB3      30.23R                  

Anaconda         N/A     25   9  50 S10G16    30.20S WCI  15          

Deer Lodge       N/A     21  16  79 CALM      30.25R                  

Hamilton       CLOUDY    28  14  54 VRB5G13   30.27R                  

Mullan Pass    LGT SNOW  20  14  77 S7        30.11  WCI  11          

Ronan            N/A     23  19  86 NE5       30.27S                  

--------------------------------



MTZ008-052.055-181500-

Southwest Montana

  

CITY           SKY/WX    TMP DP  RH WIND       PRES   REMARKS

Bozeman        CLOUDY    28  10  46 CALM      30.25R                  

Dillon         FAIR      16   7  67 SW10      30.25R WCI   4          

Ennis          CLOUDY    21   9  58 S12       30.30R WCI   9          

Three Forks      N/A     23  11  60 CALM      30.21R                  

W Yellowstone  CLOUDY    16  12  86 SW8G16    30.25R FOG     WCI   5  

--------------------------------



MTZ009-010-012-014-046-048-049-054-181500-

East Slopes and Central Montana

  

CITY           SKY/WX    TMP DP  RH WIND       PRES   REMARKS

Cut Bank       FAIR     -15 -22  70 NW9       30.28S WCI -34          

Great Falls    FAIR      -9 -16  71 N5        30.29R                  

Helena         CLOUDY    21  14  74 N3        30.25R                  

Malmstrom AFB  FAIR     -10 -15  79 E3        30.34R                  

Augusta        FAIR      -3  -7  80 CALM      30.21R                  

Bowmans Corner CLOUDY    -4  -6  88 NE9       30.19R WCI -20          

Choteau          N/A     -9 -17  70 E5        30.26R                  

Fairfield      FAIR      -8 -16  70 CALM      30.27R                  

Power          FAIR     -11 -18  72 NW8       30.28R WCI -28          

Raynesford     FAIR      -7 -13  77 SW3       30.26R                  

Ulm            MOCLDY    -5 -11  73 N3        30.31R                  

White Sulphur    N/A     21   9  58 CALM      30.19R                  

--------------------------------



MTZ011-013-016-021-045-047-050-051-181500-

North Central Montana

  

CITY           SKY/WX    TMP DP  RH WIND       PRES   REMARKS

Havre          FAIR     -12 -21  64 W9        30.44R WCI -30          

Lewistown      CLOUDY    -6 -13  71 CALM      30.23R                  

Chinook          N/A     -9 -18  64 W13       30.45R WCI -30          

Denton         MOCLDY    -7 -14  71 CALM      30.28R                  

Fort Benton      N/A     -9 -17  70 S3        30.42R                  

Geyser         FAIR      -5 -13  67 CALM      30.24R                  

Grass Range    FAIR       9   2  74 W3        30.20R                  

Judith Gap     CLOUDY    16   8  70 W6        30.18R WCI   7          

Roy            FAIR       0  -6  76 NW3       30.24R                  

Stanford       FAIR      -6 -11  80 CALM      30.21R                  

--------------------------------



MTZ017.020-022.027-061-062-181500-

Northeast Montana

  

CITY           SKY/WX    TMP DP  RH WIND       PRES   REMARKS

Glasgow        FAIR     -13 -22  64 NW12      30.36R WCI -33          

Circle           N/A    -15 -20  76 S8        30.35  WCI -32          

Culbertson       N/A    -13 -20  70 W15       30.35R WCI -36          

Glendive       FAIR      -7 -15  68 W12       30.33R WCI -26          

Jordan           N/A    -13 -19  75 NW5       30.37R                  

Malta          CLEAR    -11 -20  64 W13       30.42R WCI -32          

Poplar           N/A    -13 -20  70 W14       30.38S WCI -35Sidney         FAIR     -11 -19  68 NW14      30.36R WCI -33          

Wolf Point     FAIR     -12 -20  67 W12       30.40R WCI -32          

--------------------------------



MTZ028.42-056.058-181500-

Southcentral and southeast Montana

  

CITY           SKY/WX    TMP DP  RH WIND       PRES   REMARKS

Baker          FAIR     -10 -16  74 W12       30.26R WCI -30          

Big Timber     MOCLDY    27  10  50 W17       30.21R WCI  14          

Billings       MOCLDY    -1  -4  87 CALM      30.25R                  

Forsyth          N/A     -8 -11  84 CALM      30.37R                  

Hardin         CLOUDY     0  -6  78 NW5       30.31                   

Harlowton      MOCLDY    19  11  69 W10       30.20R WCI   7          

Laurel           N/A      5   0  78 E7        30.28R WCI  -7          

Livingston     CLOUDY    27   9  46 SW37G45   30.21R WCI   9          

Miles City     CLOUDY    -4 -12  68 W12       30.37R WCI -22          

--------------------------------



Regional Reports...Dakotas/MN

  

CITY           SKY/WX    TMP DP  RH WIND       PRES   REMARKS

Williston      FAIR     -14 -22  67 NW23G35   30.24R WCI -42          

Minot          FAIR      -8 -16  67 W26G38    30.15R WCI -35          

Dickinson      FAIR     -11 -20  64 W26G37    30.17R WCI -39          

Beach          FAIR     -11 -18  70 NW16G24   30.26S WCI -34          

Crosby         CLOUDY   -15 -22  70 NW21G26   30.25R WCI -42          

Hettinger      FAIR      -8 -16  67 W22G31    30.21R WCI -33          

Tioga          FAIR     -15 -20  76 NW26G33   30.20S HAZE    WCI -45  

Bismarck       CLOUDY    -8 -17  64 NW21G37   30.22R WCI -33          

Grand Forks    LGT SNOW   2  -3  80 NW26G35   29.95R VSB 3/4 WCI -22  

Fargo          LGT SNOW   3  -2  79 NW28G36   29.97R WCI -21          

Buffalo SD       N/A     -2 -13  59 W14G25    30.21R WCI -21          

Rapid City     FAIR      14   5  67 N9        30.20R WCI   2          

Intl Falls     LGT SNOW  20  17  88 E6        29.72F VSB 1   WCI  12  

Duluth         LGT SNOW  22  19  89 CALM      29.67F VSB 1            

Minneapolis    CLOUDY    26  23  88 W8        29.73S WCI  18          

--------------------------------



Regional Reports...WY/ID/WA

  

CITY           SKY/WX    TMP DP  RH WIND       PRES   REMARKS

Buffalo WY     FAIR      18   5  57 S8        30.18R WCI   8          

Cody           FAIR      24   4  42 W6        30.22R WCI  17          

Gillette       CLOUDY    16   8  71 W9        30.21R WCI   4          

Powell         FAIR      21   1  42 W5        30.19R                  

Sheridan       FAIR      15   5  64 CALM      30.22R                  

Yellowstone La   N/A      9   6  88 CALM      30.24R                  

Boise          CLOUDY    33  19  56 SE12      30.33S WCI  24          

Couer d'Alene  FLURRIES  25  23  92 NE6       30.28S WCI  18          

Idaho Falls    CLOUDY    13   8  81 N8        30.40R WCI   2          

Salmon         FAIR       6   3  87 CALM      30.36R                  

Spokane        LGT SNOW  25  22  88 NE7       30.25  WCI  17          

Seattle        LGT RAIN  39  36  89 E10       30.03S                  

--------------------------------



Regional Reports...Alberta

  

CITY           SKY/WX    TMP DP  RH WIND       PRES   REMARKS

Cardston         N/A    -15 -20  76 SW2         N/A                   

Crowsnest Pass   N/A    -15 -20  76 CALM        N/A                   

Del Bonita       N/A    -18 -24  76 W3          N/A                   

Edmonton       CLEAR    -18 -27  63 W5        30.48R                  

Fort McMurray  FLURRIES -17 -22  76 NW8       30.62S WCI -34          

High Level     FLURRIES -18 -24  76 S2        30.66S                  

Lethbridge     PTCLDY   -20 -27  69 W5        30.40R                  

Lloydminster   FLURRIES -18 -24  76 NW15      30.35R WCI -43          

Medicine Hat   CLEAR    -20 -27  69 SW5       30.48S                  

Onefour          N/A    -15 -20  76 NW32        N/A  WCI -47          

Peace River    PTCLDY   -33 -38  75 W3        30.56S                  

Pincher Creek  MOCLDY   -17 -22  76 MISG      30.29R                  

Raymond          N/A    -22 -27  76 SW3         N/A                   

Fort Smith NWT FLURRIES -24 -31  69 CALM      30.76R                  

--------------------------------



Regional Reports...Saskatchewan

  

CITY           SKY/WX    TMP DP  RH WIND       PRES   REMARKS

Assiniboia       N/A    -17 -26  63 W17G24      N/A  WCI -42          

Coronach         N/A    -15 -22  70 NW20        N/A  WCI -41          

Cypress Hills    N/A    -18 -26  69 NW13G21     N/A  WCI -41          

Estevan        CLOUDY   -13 -18  77 NW25G31   30.20R BLWGSNOWWCI -42  

La Ronge         N/A      0  -6  78 N10         N/A  WCI -17          

Moose Jaw        N/A    -17 -22  76 NW20G25     N/A  WCI -44          

Prince Albert  LGT SNOW  -6 -13  71 NW13      30.30R DRFTSNOWWCI -25  

Regina         PTCLDY   -15 -22  70 W21G28    30.25R WCI -42          

Rockglen         N/A    -17 -22  76 NW24G33     N/A  WCI -46          

Saskatoon      FLURRIES -11 -17  77 W20       30.30R WCI -36          

Swift Current  CLEAR    -20 -26  76 W26G33    30.26R WCI -52          

Uranium City     N/A    -31 -36  75 E2          N/A                   

Val Marie        N/A    -15 -24  64 NW12        N/A  WCI -36          

--------------------------------